Location: Sungai Bunut
(2.6333°N, 113.7333°E)
Time: 13:05:16
(UTC+00:00)

SR - Pass Details

Date: 15 December 2023
Orbit: 574 x 867 km, 66.7° (Epoch: 29 February)

Event Time Altitude Azimuth Distance (km) Brightness Sun altitude
Rises 12:10:34 0° 326° (NNW) 3,213 ? -26.3°
Reaches altitude 10° 12:13:11 10° 318° (NW) 2,239 ? -26.9°
Maximum altitude 12:17:51 37° 252° (WSW) 1,074 ? -28.0°
Drops below altitude 10° 12:22:11 10° 184° (S) 2,068 ? -29.0°
Sets 12:24:31 0° 176° (S) 2,936 ? -29.5°
